User: anonymous   Login
Location: Caltech
(34.1382°N, 118.1253°W)
Time: 04:47:09
(UTC-07:00)
Language:

SL-16 R/B - Orbit

View from above orbital plane
View from above orbital plane
View from above satellite
View from above satellite

Ground track
Ground track

The orbit data is extracted from the following two-line orbital elements,

1 28353U 04021B   16183.17099999 -.00000199  00000-0 -79255-4 0  9993
2 28353  71.0009  94.5938 0005010 347.2810  12.8185 14.14175284622539
Epoch (UTC): 01 July 2016 04:06:14
Eccentricity: 0.0005010
inclination: 71.0009°
perigee height: 841 km
apogee height: 849 km
right ascension of ascending node: 94.5938°
argument of perigee: 347.2810°
revolutions per day: 14.14175284
mean anomaly at epoch: 12.8185°
orbit number at epoch: 62253

The dashed part of the orbit path shows where the satellite is in the earth's shadow,  

DLR